QPF
0.00 0.00 0.01 0.01 0.01 0.01 0.01 0.01 0.01 0.01 0.01 0.02 0.02 0.02 0.02 0.01 0.01 0.02 0.01 0.01 0.01 0.01 0.01 0.01 0.01 0.01 0.01 0.02 0.01 0.01 0.01 0.01 0.01 0.01 0.01 0.01 0.01 0.01 0.01 0.01 0.01 0.02 0.02
0.00 0.01 0.01 0.01 0.01 0.00 0.01 0.00 0.00 0.01 0.01 0.02 0.02 0.02 0.03 0.02 0.01 0.01 0.02 0.03 0.02 0.01 0.00 0.01 0.01 0.01 0.01 0.01 0.01 0.00 0.01 0.01 0.01 0.01 0.01 0.01 0.02 0.02 0.01 0.01 0.01 0.02 0.02
0.00 0.00 0.00 0.00 0.01 0.00 0.00 0.00 0.01 0.01 0.01 0.01 0.01 0.01 0.02 0.03 0.03 0.02 0.02 0.02 0.02 0.02 0.01 0.01 0.01 0.01 0.01 0.01 0.01 0.00 0.00 0.01 0.01 0.02 0.01 0.02 0.02 0.02 0.02 0.01 0.02 0.02 0.02
0.00 0.00 0.00 0.00 0.00 0.01 0.01 0.00 0.01 0.01 0.01 0.01 0.01 0.01 0.02 0.02 0.02 0.02 0.02 0.02 0.02 0.02 0.03 0.02 0.01 0.01 0.01 0.01 0.01 0.00 0.01 0.01 0.01 0.02 0.01 0.01 0.01 0.01 0.03 0.03 0.03 0.02 0.02
0.00 0.00 0.00 0.00 0.00 0.01 0.01 0.00 0.01 0.01 0.01 0.01 0.01 0.02 0.01 0.02 0.01 0.01 0.02 0.01 0.01 0.01 0.03 0.02 0.01 0.01 0.01 0.01 0.01 0.01 0.01 0.01 0.01 0.01 0.01 0.01 0.01 0.01 0.02 0.03 0.03 0.02 0.02
0.00 0.00 0.00 0.00 0.00 0.01 0.00 0.00 0.01 0.01 0.01 0.01 0.00 0.01 0.01 0.01 0.01 0.01 0.01 0.01 0.01 0.01 0.01 0.01 0.02 0.01 0.01 0.01 0.01 0.01 0.01 0.01 0.01 0.01 0.01 0.02 0.02 0.02 0.03 0.02 0.02 0.02 0.02
0.00 0.00 0.00 0.00 0.01 0.00 0.00 0.00 0.01 0.01 0.01 0.01 0.00 0.00 0.00 0.01 0.01 0.01 0.00 0.00 0.00 0.01 0.01 0.01 0.01 0.01 0.01 0.00 0.00 0.01 0.00 0.00 0.00 0.00 0.01 0.02 0.04 0.03 0.04 0.03 0.02 0.02 0.01
0.00 0.00 0.00 0.00 0.00 0.01 0.01 0.00 0.01 0.01 0.01 0.01 0.00 0.00 0.01 0.01 0.01 0.01 0.01 0.00 0.00 0.00 0.01 0.01 0.01 0.01 0.01 0.01 0.00 0.00 0.00 0.00 0.00 0.00 0.00 0.01 0.02 0.03 0.03 0.03 0.02 0.02 0.02
0.00 0.00 0.00 0.00 0.00 0.00 0.01 0.01 0.01 0.01 0.01 0.01 0.01 0.01 0.01 0.01 0.01 0.01 0.01 0.00 0.00 0.01 0.01 0.01 0.01 0.01 0.01 0.01 0.01 0.00 0.00 0.01 0.01 0.01 0.00 0.01 0.02 0.02 0.02 0.02 0.01 0.02 0.02
0.00 0.00 0.00 0.00 0.00 0.00 0.01 0.01 0.01 0.01 0.01 0.01 0.01 0.01 0.01 0.01 0.01 0.01 0.00 0.00 0.00 0.01 0.01 0.01 0.01 0.01 0.01 0.01 0.01 0.01 0.01 0.01 0.01 0.01 0.01 0.01 0.01 0.02 0.02 0.02 0.01 0.01 0.02
0.00 0.00 0.00 0.00 0.00 0.01 0.01 0.01 0.01 0.01 0.01 0.01 0.01 0.00 0.01 0.01 0.01 0.00 0.00 0.01 0.01 0.01 0.01 0.02 0.02 0.01 0.01 0.01 0.01 0.01 0.01 0.01 0.01 0.01 0.01 0.01 0.01 0.01 0.01 0.01 0.01 0.01 0.01
0.00 0.00 0.00 0.00 0.01 0.02 0.02 0.01 0.01 0.01 0.01 0.00 0.00 0.00 0.01 0.01 0.01 0.01 0.01 0.01 0.01 0.01 0.01 0.02 0.02 0.02 0.01 0.01 0.01 0.01 0.01 0.01 0.01 0.01 0.01 0.01 0.01 0.01 0.01 0.01 0.01 0.01 0.01
0.00 0.00 0.00 0.00 0.01 0.02 0.02 0.02 0.02 0.01 0.01 0.01 0.00 0.00 0.00 0.00 0.00 0.01 0.01 0.01 0.01 0.01 0.02 0.03 0.03 0.02 0.02 0.01 0.01 0.01 0.01 0.01 0.01 0.01 0.01 0.01 0.00 0.01 0.01 0.01 0.01 0.01 0.01
0.00 0.00 0.00 0.00 0.00 0.01 0.01 0.01 0.01 0.01 0.01 0.01 0.00 0.00 0.00 0.00 0.00 0.01 0.01 0.00 0.01 0.01 0.01 0.02 0.02 0.02 0.02 0.01 0.01 0.01 0.02 0.02 0.02 0.01 0.01 0.00 0.00 0.01 0.01 0.01 0.01 0.01 0.01
0.00 0.00 0.00 0.00 0.00 0.00 0.00 0.00 0.00 0.00 0.00 0.00 0.00 0.00 0.00 0.00 0.01 0.01 0.01 0.01 0.01 0.01 0.01 0.02 0.01 0.02 0.02 0.02 0.01 0.01 0.02 0.02 0.02 0.02 0.02 0.01 0.00 0.01 0.01 0.01 0.01 0.01 0.01
0.00 0.00 0.00 0.00 0.00 0.00 0.00 0.00 0.00 0.00 0.00 0.00 0.00 0.00 0.00 0.01 0.01 0.01 0.01 0.01 0.01 0.01 0.01 0.02 0.02 0.02 0.02 0.03 0.03 0.03 0.03 0.03 0.03 0.02 0.02 0.01 0.01 0.01 0.01 0.01 0.01 0.01 0.01
0.00 0.00 0.00 0.00 0.00 0.00 0.00 0.00 0.00 0.00 0.00 0.00 0.00 0.00 0.00 0.00 0.01 0.01 0.01 0.01 0.02 0.02 0.02 0.02 0.03 0.03 0.03 0.03 0.03 0.03 0.03 0.03 0.02 0.02 0.02 0.01 0.01 0.01 0.01 0.01 0.01 0.01 0.01
0.00 0.00 0.00 0.00 0.00 0.01 0.01 0.00 0.00 0.00 0.01 0.00 0.00 0.01 0.01 0.01 0.01 0.01 0.01 0.01 0.02 0.02 0.01 0.01 0.02 0.03 0.04 0.03 0.02 0.03 0.02 0.02 0.02 0.02 0.02 0.02 0.01 0.01 0.01 0.00 0.00 0.00 0.00
0.00 0.00 0.00 0.00 0.00 0.01 0.01 0.01 0.01 0.01 0.01 0.01 0.00 0.00 0.01 0.01 0.01 0.01 0.01 0.02 0.02 0.02 0.01 0.01 0.02 0.02 0.03 0.03 0.02 0.02 0.01 0.01 0.02 0.02 0.03 0.02 0.01 0.02 0.02 0.01 0.00 0.00 0.00
0.00 0.00 0.00 0.00 0.00 0.01 0.01 0.01 0.01 0.01 0.01 0.01 0.00 0.00 0.01 0.01 0.01 0.01 0.02 0.02 0.02 0.02 0.02 0.02 0.02 0.02 0.03 0.03 0.03 0.02 0.01 0.01 0.01 0.02 0.02 0.03 0.03 0.02 0.02 0.01 0.01 0.00 0.00
0.00 0.00 0.00 0.00 0.00 0.01 0.01 0.01 0.01 0.01 0.01 0.01 0.01 0.01 0.01 0.01 0.01 0.02 0.02 0.03 0.02 0.02 0.02 0.02 0.02 0.02 0.02 0.02 0.02 0.02 0.02 0.02 0.02 0.02 0.02 0.02 0.02 0.02 0.03 0.02 0.01 0.01 0.01
0.00 0.00 0.00 0.00 0.00 0.00 0.01 0.01 0.01 0.01 0.01 0.02 0.02 0.01 0.01 0.01 0.02 0.03 0.03 0.03 0.03 0.02 0.02 0.02 0.02 0.01 0.01 0.01 0.01 0.02 0.02 0.02 0.02 0.02 0.02 0.02 0.02 0.03 0.02 0.02 0.02 0.02 0.02
0.00 0.00 0.00 0.00 0.00 0.00 0.01 0.01 0.02 0.02 0.02 0.02 0.02 0.02 0.02 0.03 0.03 0.04 0.04 0.04 0.04 0.03 0.02 0.02 0.01 0.01 0.01 0.01 0.01 0.01 0.01 0.01 0.02 0.02 0.02 0.02 0.03 0.03 0.03 0.02 0.03 0.03 0.03
0.00 0.00 0.00 0.00 0.00 0.00 0.00 0.01 0.02 0.02 0.02 0.02 0.02 0.03 0.03 0.04 0.04 0.04 0.05 0.04 0.04 0.03 0.02 0.02 0.02 0.02 0.02 0.01 0.01 0.01 0.01 0.01 0.01 0.02 0.02 0.03 0.03 0.04 0.03 0.03 0.03 0.03 0.03
0.01 0.00 0.00 0.00 0.00 0.00 0.00 0.00 0.01 0.02 0.03 0.02 0.02 0.02 0.03 0.04 0.05 0.05 0.05 0.03 0.03 0.03 0.03 0.01 0.01 0.01 0.01 0.01 0.01 0.01 0.01 0.01 0.02 0.02 0.02 0.02 0.02 0.02 0.02 0.03 0.03 0.03 0.03
0.01 0.01 0.00 0.00 0.00 0.01 0.01 0.01 0.01 0.01 0.02 0.04 0.04 0.04 0.04 0.04 0.05 0.05 0.05 0.04 0.03 0.04 0.04 0.03 0.02 0.02 0.01 0.01 0.01 0.01 0.01 0.01 0.02 0.03 0.02 0.02 0.02 0.02 0.02 0.02 0.03 0.03 0.04
MSLP
1013.08 1013.20 1013.34 1013.49 1013.62 1013.74 1013.83 1013.91 1013.95 1013.99 1014.01 1014.03 1014.05 1014.06 1014.08 1014.09 1014.09 1014.08 1014.04 1013.98 1013.89 1013.78 1013.66 1013.53 1013.42 1013.32 1013.25 1013.20 1013.15 1013.09 1013.00 1012.85 1012.64 1012.37 1012.05 1011.70 1011.35 1011.03 1010.75 1010.52 1010.35 1010.23 1010.15
1013.00 1013.19 1013.38 1013.55 1013.70 1013.81 1013.89 1013.96 1014.01 1014.06 1014.12 1014.19 1014.27 1014.34 1014.40 1014.44 1014.46 1014.44 1014.39 1014.30 1014.18 1014.04 1013.88 1013.73 1013.59 1013.47 1013.36 1013.27 1013.18 1013.09 1012.96 1012.80 1012.58 1012.31 1012.01 1011.66 1011.31 1010.96 1010.64 1010.34 1010.08 1009.86 1009.68
1012.72 1012.98 1013.22 1013.44 1013.60 1013.73 1013.81 1013.89 1013.96 1014.06 1014.17 1014.30 1014.45 1014.59 1014.71 1014.79 1014.83 1014.82 1014.76 1014.65 1014.52 1014.35 1014.18 1014.01 1013.85 1013.70 1013.56 1013.43 1013.30 1013.17 1013.01 1012.83 1012.60 1012.34 1012.04 1011.71 1011.35 1010.97 1010.59 1010.22 1009.86 1009.54 1009.25
1012.23 1012.56 1012.87 1013.14 1013.34 1013.49 1013.61 1013.71 1013.83 1013.98 1014.16 1014.38 1014.60 1014.81 1014.99 1015.13 1015.19 1015.20 1015.14 1015.03 1014.89 1014.72 1014.54 1014.36 1014.19 1014.02 1013.85 1013.68 1013.51 1013.34 1013.15 1012.94 1012.71 1012.45 1012.16 1011.83 1011.47 1011.07 1010.63 1010.18 1009.73 1009.29 1008.88
1011.61 1012.01 1012.39 1012.72 1012.97 1013.17 1013.33 1013.49 1013.66 1013.88 1014.14 1014.44 1014.74 1015.03 1015.27 1015.45 1015.55 1015.57 1015.52 1015.42 1015.28 1015.12 1014.94 1014.76 1014.58 1014.39 1014.19 1013.99 1013.79 1013.57 1013.35 1013.13 1012.89 1012.63 1012.35 1012.03 1011.66 1011.25 1010.77 1010.26 1009.71 1009.17 1008.65
1010.99 1011.46 1011.91 1012.30 1012.61 1012.87 1013.08 1013.30 1013.54 1013.83 1014.16 1014.52 1014.90 1015.25 1015.55 1015.76 1015.89 1015.93 1015.90 1015.80 1015.67 1015.52 1015.35 1015.17 1014.98 1014.78 1014.57 1014.34 1014.10 1013.85 1013.61 1013.36 1013.12 1012.87 1012.61 1012.30 1011.95 1011.52 1011.02 1010.46 1009.84 1009.21 1008.59
1010.52 1011.04 1011.55 1012.00 1012.37 1012.68 1012.95 1013.22 1013.52 1013.86 1014.26 1014.68 1015.10 1015.50 1015.83 1016.08 1016.23 1016.28 1016.26 1016.17 1016.05 1015.91 1015.74 1015.57 1015.39 1015.18 1014.95 1014.70 1014.43 1014.15 1013.89 1013.63 1013.39 1013.15 1012.91 1012.63 1012.30 1011.88 1011.38 1010.79 1010.14 1009.44 1008.75
1010.30 1010.86 1011.42 1011.91 1012.34 1012.69 1013.01 1013.32 1013.65 1014.04 1014.47 1014.92 1015.38 1015.79 1016.15 1016.40 1016.56 1016.62 1016.60 1016.53 1016.42 1016.28 1016.13 1015.97 1015.78 1015.57 1015.32 1015.05 1014.76 1014.46 1014.18 1013.92 1013.68 1013.47 1013.25 1013.00 1012.71 1012.32 1011.84 1011.26 1010.59 1009.86 1009.12
1010.38 1010.97 1011.56 1012.09 1012.54 1012.92 1013.27 1013.60 1013.95 1014.35 1014.79 1015.25 1015.71 1016.13 1016.48 1016.74 1016.90 1016.96 1016.95 1016.88 1016.78 1016.66 1016.52 1016.36 1016.18 1015.96 1015.70 1015.41 1015.10 1014.79 1014.49 1014.22 1013.99 1013.80 1013.61 1013.40 1013.15 1012.81 1012.36 1011.81 1011.15 1010.42 1009.66
1010.72 1011.34 1011.94 1012.48 1012.95 1013.34 1013.69 1014.02 1014.38 1014.77 1015.20 1015.66 1016.10 1016.51 1016.85 1017.10 1017.25 1017.31 1017.31 1017.25 1017.17 1017.06 1016.93 1016.78 1016.60 1016.37 1016.11 1015.80 1015.47 1015.14 1014.83 1014.56 1014.33 1014.14 1013.98 1013.81 1013.59 1013.30 1012.90 1012.38 1011.75 1011.04 1010.28
1011.21 1011.85 1012.46 1013.00 1013.46 1013.85 1014.19 1014.52 1014.86 1015.24 1015.66 1016.09 1016.52 1016.91 1017.23 1017.47 1017.62 1017.69 1017.70 1017.65 1017.58 1017.49 1017.38 1017.24 1017.06 1016.83 1016.56 1016.24 1015.89 1015.54 1015.21 1014.92 1014.69 1014.50 1014.34 1014.19 1014.00 1013.74 1013.37 1012.89 1012.30 1011.62 1010.87
1011.71 1012.35 1012.95 1013.49 1013.95 1014.33 1014.67 1014.99 1015.34 1015.71 1016.11 1016.53 1016.94 1017.32 1017.63 1017.86 1018.02 1018.09 1018.11 1018.09 1018.03 1017.96 1017.86 1017.73 1017.56 1017.33 1017.05 1016.72 1016.36 1015.99 1015.64 1015.33 1015.07 1014.86 1014.69 1014.52 1014.34 1014.08 1013.74 1013.28 1012.71 1012.06 1011.33
1012.05 1012.70 1013.31 1013.84 1014.30 1014.69 1015.04 1015.38 1015.73 1016.11 1016.52 1016.94 1017.35 1017.72 1018.03 1018.27 1018.42 1018.51 1018.54 1018.54 1018.51 1018.45 1018.36 1018.24 1018.08 1017.86 1017.57 1017.24 1016.86 1016.47 1016.09 1015.74 1015.45 1015.20 1014.99 1014.80 1014.58 1014.31 1013.95 1013.49 1012.93 1012.28 1011.57
1012.16 1012.81 1013.43 1013.98 1014.45 1014.87 1015.25 1015.63 1016.02 1016.43 1016.86 1017.30 1017.72 1018.10 1018.42 1018.66 1018.83 1018.93 1018.98 1018.99 1018.97 1018.92 1018.85 1018.74 1018.58 1018.37 1018.08 1017.74 1017.36 1016.95 1016.54 1016.16 1015.82 1015.51 1015.24 1014.99 1014.72 1014.40 1014.00 1013.52 1012.94 1012.29 1011.57
1011.99 1012.66 1013.30 1013.87 1014.39 1014.86 1015.31 1015.75 1016.20 1016.66 1017.14 1017.61 1018.06 1018.46 1018.79 1019.04 1019.22 1019.33 1019.39 1019.40 1019.39 1019.35 1019.28 1019.18 1019.03 1018.81 1018.54 1018.20 1017.81 1017.39 1016.95 1016.54 1016.14 1015.78 1015.44 1015.10 1014.76 1014.37 1013.92 1013.39 1012.78 1012.09 1011.36
1011.59 1012.29 1012.96 1013.59 1014.17 1014.71 1015.24 1015.77 1016.30 1016.84 1017.38 1017.90 1018.38 1018.80 1019.14 1019.40 1019.58 1019.69 1019.74 1019.75 1019.73 1019.69 1019.62 1019.52 1019.37 1019.16 1018.90 1018.56 1018.18 1017.75 1017.30 1016.85 1016.40 1015.98 1015.57 1015.15 1014.73 1014.27 1013.74 1013.15 1012.50 1011.78 1011.01
1011.06 1011.79 1012.51 1013.20 1013.86 1014.50 1015.12 1015.74 1016.37 1016.98 1017.59 1018.15 1018.67 1019.11 1019.46 1019.72 1019.90 1019.99 1020.03 1020.03 1019.99 1019.94 1019.86 1019.75 1019.60 1019.40 1019.15 1018.83 1018.45 1018.03 1017.57 1017.09 1016.61 1016.13 1015.65 1015.17 1014.66 1014.13 1013.54 1012.90 1012.19 1011.43 1010.63
1010.52 1011.28 1012.05 1012.81 1013.55 1014.28 1015.01 1015.72 1016.43 1017.12 1017.78 1018.39 1018.93 1019.39 1019.74 1020.00 1020.16 1020.24 1020.26 1020.24 1020.18 1020.11 1020.02 1019.90 1019.75 1019.55 1019.31 1019.00 1018.64 1018.22 1017.76 1017.27 1016.76 1016.24 1015.71 1015.17 1014.60 1014.01 1013.38 1012.69 1011.94 1011.15 1010.30
1010.09 1010.88 1011.69 1012.51 1013.32 1014.13 1014.94 1015.74 1016.51 1017.26 1017.97 1018.61 1019.17 1019.63 1019.99 1020.24 1020.39 1020.45 1020.45 1020.41 1020.33 1020.24 1020.13 1020.01 1019.86 1019.67 1019.43 1019.14 1018.79 1018.39 1017.92 1017.42 1016.89 1016.34 1015.77 1015.18 1014.58 1013.95 1013.28 1012.57 1011.80 1010.98 1010.12
1009.82 1010.63 1011.47 1012.34 1013.20 1014.07 1014.94 1015.79 1016.61 1017.40 1018.13 1018.79 1019.36 1019.83 1020.19 1020.44 1020.58 1020.64 1020.63 1020.58 1020.49 1020.39 1020.28 1020.15 1020.00 1019.82 1019.59 1019.31 1018.97 1018.56 1018.10 1017.59 1017.03 1016.45 1015.85 1015.24 1014.61 1013.96 1013.28 1012.57 1011.80 1010.97 1010.09
1009.75 1010.57 1011.42 1012.31 1013.20 1014.10 1014.99 1015.87 1016.72 1017.52 1018.27 1018.94 1019.51 1019.99 1020.35 1020.61 1020.76 1020.83 1020.83 1020.78 1020.70 1020.60 1020.49 1020.37 1020.22 1020.04 1019.82 1019.55 1019.21 1018.80 1018.33 1017.79 1017.22 1016.61 1015.98 1015.34 1014.70 1014.05 1013.37 1012.66 1011.91 1011.10 1010.21
1009.87 1010.67 1011.52 1012.40 1013.30 1014.20 1015.09 1015.97 1016.81 1017.62 1018.36 1019.03 1019.62 1020.10 1020.49 1020.76 1020.94 1021.04 1021.07 1021.04 1020.98 1020.90 1020.80 1020.69 1020.55 1020.39 1020.17 1019.89 1019.55 1019.13 1018.64 1018.08 1017.47 1016.83 1016.17 1015.51 1014.85 1014.19 1013.53 1012.85 1012.12 1011.33 1010.46
1010.13 1010.91 1011.73 1012.59 1013.46 1014.34 1015.21 1016.07 1016.90 1017.69 1018.42 1019.10 1019.69 1020.19 1020.60 1020.91 1021.13 1021.26 1021.33 1021.34 1021.32 1021.27 1021.20 1021.11 1020.99 1020.83 1020.62 1020.34 1019.99 1019.55 1019.03 1018.44 1017.80 1017.12 1016.43 1015.74 1015.06 1014.40 1013.75 1013.08 1012.39 1011.63 1010.79
1010.48 1011.22 1012.02 1012.83 1013.67 1014.51 1015.35 1016.17 1016.97 1017.74 1018.47 1019.14 1019.74 1020.26 1020.70 1021.05 1021.31 1021.50 1021.61 1021.67 1021.69 1021.68 1021.64 1021.58 1021.48 1021.34 1021.14 1020.86 1020.50 1020.05 1019.51 1018.89 1018.21 1017.49 1016.76 1016.03 1015.34 1014.66 1014.02 1013.38 1012.71 1011.99 1011.18
1010.87 1011.58 1012.33 1013.11 1013.90 1014.70 1015.50 1016.28 1017.05 1017.80 1018.51 1019.17 1019.78 1020.32 1020.79 1021.18 1021.48 1021.71 1021.87 1021.98 1022.05 1022.07 1022.07 1022.04 1021.96 1021.84 1021.66 1021.40 1021.04 1020.59 1020.04 1019.40 1018.69 1017.95 1017.18 1016.43 1015.70 1015.02 1014.37 1013.73 1013.09 1012.41 1011.64
1011.26 1011.94 1012.66 1013.39 1014.14 1014.90 1015.66 1016.41 1017.15 1017.87 1018.56 1019.22 1019.83 1020.39 1020.87 1021.28 1021.62 1021.89 1022.09 1022.23 1022.33 1022.39 1022.42 1022.42 1022.37 1022.28 1022.13 1021.89 1021.56 1021.13 1020.59 1019.96 1019.25 1018.49 1017.71 1016.93 1016.19 1015.48 1014.82 1014.19 1013.56 1012.89 1012.16
Thickness
5731 5731 5728 5727 5726 5725 5724 5722 5720 5718 5716 5714 5712 5710 5709 5709 5708 5707 5706 5704 5704 5704 5703 5702 5702 5700 5699 5698 5698 5697 5696 5696 5697 5697 5696 5696 5697 5696 5694 5694 5694 5694 5693
5729 5727 5725 5724 5724 5722 5721 5720 5718 5716 5714 5711 5711 5709 5708 5707 5706 5703 5702 5701 5701 5700 5700 5700 5698 5697 5695 5694 5694 5692 5692 5693 5693 5693 5692 5690 5689 5689 5691 5690 5690 5690 5688
5727 5726 5724 5722 5721 5720 5719 5717 5716 5714 5711 5709 5708 5706 5704 5703 5702 5700 5699 5698 5697 5696 5696 5696 5695 5693 5693 5691 5690 5689 5687 5687 5689 5690 5688 5685 5684 5684 5686 5686 5686 5685 5684
5727 5725 5722 5720 5719 5718 5717 5716 5714 5712 5710 5707 5704 5702 5700 5699 5699 5699 5697 5695 5694 5693 5692 5691 5691 5690 5689 5688 5687 5687 5686 5683 5683 5684 5684 5686 5685 5680 5679 5681 5682 5681 5680
5726 5723 5721 5719 5718 5716 5714 5713 5711 5708 5707 5705 5702 5700 5698 5697 5696 5695 5694 5692 5691 5689 5688 5687 5687 5686 5685 5685 5684 5683 5682 5681 5680 5680 5680 5680 5679 5681 5677 5674 5675 5677 5676
5724 5722 5720 5717 5715 5713 5711 5708 5706 5704 5702 5700 5699 5698 5695 5693 5691 5690 5689 5688 5688 5686 5684 5683 5683 5682 5681 5681 5680 5679 5678 5678 5677 5677 5677 5676 5675 5675 5675 5672 5672 5671 5672
5722 5719 5716 5713 5711 5709 5707 5706 5703 5701 5699 5698 5697 5696 5694 5692 5689 5687 5686 5684 5684 5682 5681 5680 5679 5678 5677 5677 5676 5675 5675 5674 5673 5673 5673 5673 5673 5673 5672 5671 5669 5667 5668
5720 5717 5714 5711 5709 5706 5704 5703 5701 5699 5697 5695 5695 5693 5691 5688 5687 5684 5683 5681 5681 5680 5679 5677 5676 5674 5673 5672 5672 5672 5671 5671 5670 5669 5669 5668 5669 5669 5668 5667 5665 5663 5663
5716 5714 5711 5709 5707 5704 5702 5701 5699 5697 5695 5693 5691 5690 5688 5685 5683 5682 5681 5679 5678 5676 5675 5673 5672 5670 5669 5668 5667 5667 5667 5667 5666 5666 5666 5665 5665 5664 5664 5663 5661 5659 5656
5712 5710 5708 5705 5704 5702 5700 5698 5696 5694 5692 5690 5688 5686 5684 5682 5680 5679 5677 5675 5674 5672 5671 5670 5668 5667 5666 5664 5663 5662 5662 5662 5661 5660 5661 5660 5660 5659 5658 5657 5657 5656 5654
5708 5707 5704 5702 5700 5698 5695 5693 5692 5690 5688 5686 5684 5682 5680 5678 5676 5674 5673 5671 5670 5668 5666 5665 5664 5663 5662 5661 5659 5658 5658 5658 5658 5657 5657 5656 5655 5654 5653 5652 5652 5652 5651
5703 5701 5699 5697 5695 5693 5691 5689 5687 5686 5684 5682 5680 5678 5676 5674 5672 5670 5669 5667 5665 5663 5662 5660 5659 5658 5657 5657 5655 5654 5653 5653 5652 5653 5653 5652 5650 5649 5649 5647 5647 5647 5647
5697 5695 5693 5692 5690 5688 5686 5684 5682 5681 5679 5677 5675 5673 5672 5670 5668 5666 5664 5662 5660 5658 5657 5656 5655 5654 5653 5652 5650 5649 5649 5648 5648 5648 5648 5648 5647 5645 5644 5643 5643 5642 5641
5691 5689 5687 5686 5685 5683 5681 5679 5677 5675 5673 5671 5669 5668 5667 5664 5663 5661 5659 5657 5655 5653 5652 5651 5650 5649 5648 5646 5645 5644 5644 5644 5643 5643 5643 5643 5642 5641 5640 5639 5638 5637 5635
5685 5684 5682 5681 5679 5677 5675 5673 5671 5669 5667 5665 5663 5662 5661 5658 5656 5654 5652 5650 5649 5648 5647 5645 5644 5643 5642 5641 5641 5640 5639 5639 5639 5638 5638 5638 5636 5635 5635 5634 5634 5632 5631
5679 5678 5677 5675 5673 5672 5669 5667 5665 5663 5661 5659 5657 5655 5653 5651 5649 5647 5645 5643 5642 5641 5640 5639 5638 5637 5636 5634 5633 5633 5634 5634 5634 5633 5633 5632 5630 5628 5626 5626 5625 5625 5626
5673 5673 5672 5670 5668 5666 5664 5660 5659 5657 5654 5653 5651 5648 5646 5643 5642 5640 5638 5636 5635 5634 5633 5633 5632 5631 5630 5628 5626 5626 5628 5628 5629 5629 5629 5628 5627 5624 5624 5622 5619 5619 5618
5667 5667 5666 5664 5662 5660 5657 5654 5652 5650 5648 5646 5644 5642 5640 5637 5634 5632 5630 5629 5628 5627 5627 5627 5627 5625 5624 5622 5621 5620 5622 5623 5624 5624 5623 5622 5621 5620 5619 5619 5618 5617 5615
5661 5660 5658 5657 5654 5651 5649 5647 5645 5643 5641 5639 5638 5636 5634 5631 5628 5626 5624 5623 5621 5621 5620 5620 5620 5619 5619 5616 5615 5614 5617 5618 5618 5618 5617 5616 5615 5613 5610 5612 5612 5611 5610
5652 5651 5650 5648 5645 5643 5641 5638 5637 5635 5633 5632 5631 5630 5628 5625 5623 5621 5619 5616 5614 5614 5613 5613 5613 5613 5613 5611 5609 5608 5612 5612 5612 5612 5610 5607 5607 5605 5603 5605 5605 5604 5604
5643 5641 5640 5638 5636 5634 5632 5630 5630 5628 5627 5625 5623 5622 5620 5618 5617 5615 5612 5609 5608 5606 5606 5605 5606 5606 5606 5604 5602 5602 5605 5606 5606 5605 5604 5602 5598 5597 5595 5596 5597 5596 5595
5632 5631 5630 5628 5626 5625 5623 5622 5621 5620 5618 5616 5614 5613 5612 5610 5609 5607 5605 5603 5601 5599 5599 5598 5598 5598 5598 5596 5595 5594 5595 5596 5597 5597 5596 5595 5591 5589 5587 5587 5586 5585 5585
5624 5622 5621 5619 5617 5616 5614 5613 5612 5611 5610 5608 5606 5605 5604 5602 5600 5599 5597 5596 5594 5593 5592 5592 5591 5590 5590 5589 5587 5586 5586 5585 5587 5588 5585 5584 5582 5580 5579 5577 5577 5576 5577
5614 5612 5611 5610 5609 5607 5605 5605 5603 5602 5601 5600 5599 5597 5595 5594 5592 5590 5589 5587 5586 5586 5586 5585 5584 5583 5582 5581 5580 5579 5578 5576 5576 5577 5575 5573 5572 5571 5570 5570 5570 5569 5569
5604 5603 5603 5601 5599 5598 5597 5596 5595 5594 5593 5592 5591 5589 5588 5586 5585 5583 5581 5580 5580 5579 5578 5578 5577 5576 5575 5574 5572 5571 5571 5570 5569 5568 5568 5567 5566 5565 5565 5564 5563 5561 5560
5594 5593 5592 5591 5590 5589 5588 5587 5586 5585 5585 5584 5583 5581 5580 5578 5577 5575 5573 5570 5570 5568 5567 5567 5567 5567 5566 5564 5562 5561 5560 5559 5559 5558 5560 5559 5559 5557 5556 5555 5554 5553 5552